Vertical_Velocity
0 -1 -1 -8 -6 -1 4 -0 1 1 2 0 1 2 3 0 0 -1 0 -4 -3 -3 -2 -2 -3 3 14 -4 3 2 -3 -2 -1 2 1 0 -0 0 3 -1 1 1 2 4 1 3 -3 -1 -1
-2 -1 -2 -9 3 -0 1 -2 -3 2 -0 1 0 -1 -2 -5 1 -1 3 3 1 -2 1 -0 4 -1 9 -1 -1 -1 3 -2 -1 0 1 -1 -2 -1 -0 -4 0 -1 2 -0 7 19 -1 -1 -1
-0 -4 -1 -0 5 -0 -3 -0 -2 1 -0 2 -0 -0 2 -1 -1 -1 1 -0 1 -3 1 -1 19 -3 2 -0 12 2 0 6 -4 -3 2 1 -2 1 -0 0 1 2 0 2 6 6 5 1 -1
5 7 5 -2 -4 -2 5 -4 -6 -5 -0 1 -0 1 -1 -1 -1 -2 2 2 0 3 -1 -2 7 5 1 2 6 -2 2 -3 1 4 -7 2 -1 -1 4 4 -4 13 -2 3 11 10 8 -2 0
-6 -0 -4 -1 -0 0 1 1 -0 -2 -0 1 3 0 2 3 -2 -0 -1 0 -0 1 -0 -1 -1 1 -1 18 6 12 30 -3 -0 0 2 -1 2 -1 1 1 -1 -2 2 7 2 2 7 2 -0
4 -1 1 0 -1 1 -3 -5 -3 -5 -3 1 -0 -1 -4 -3 2 -3 0 -0 1 1 -1 -3 -5 -0 1 9 6 8 -4 -0 -6 -1 -1 1 2 1 3 -0 38 -2 -2 6 3 1 -0 -2 2
0 -2 -1 -1 -5 -0 -3 -4 2 -1 -5 -5 5 -1 -1 -4 -4 -3 -2 0 -1 -1 1 1 -2 -8 -2 -5 7 4 0 12 -0 -6 -4 -0 2 -0 -1 11 9 -3 3 11 4 4 -2 -0 0
-7 0 2 4 -5 -1 -4 -5 -2 -2 -4 -3 -1 0 -1 -2 -3 -1 -11 -2 1 -1 -1 3 2 -4 -1 -7 -5 1 -3 -3 18 -0 -2 -6 -1 0 2 1 -5 0 3 4 8 1 3 4 -1
3 6 1 -1 -8 1 -2 0 1 -1 -2 -6 -10 -6 -3 -2 -6 -5 -6 -12 -6 -2 -1 0 -1 5 -3 1 -7 -1 -6 0 -3 -2 1 -5 -2 -0 -2 2 1 2 -1 -2 4 3 -0 1 -1
-11 -8 -5 -2 -2 1 -1 -3 -1 2 2 8 10 3 -3 -4 -2 -1 -2 -3 -6 -5 -6 -5 3 3 -3 5 -3 -2 -4 -3 -4 6 -2 1 -1 -0 0 1 -2 4 17 -6 3 13 -0 2 -3
0 -2 -0 -3 -3 -4 -2 -1 -3 -0 -1 -7 -8 -6 -7 -8 -4 -4 -4 -8 -12 -13 -5 -6 0 5 1 -5 5 -7 -3 2 -13 -5 1 0 -0 1 1 -0 -2 4 -1 1 22 3 4 -3 -1
-6 2 0 1 1 -1 -1 -4 -2 -4 -4 -4 -4 -4 -5 -2 -1 -4 -8 -9 -7 -12 -9 -15 -3 -2 3 -3 -0 0 -4 2 -3 -1 -10 -1 -1 -1 1 -3 -2 2 -0 5 16 9 2 -3 -0
-1 0 -1 -2 -2 -4 -1 1 -3 -1 1 -1 -2 1 2 -3 0 -2 -6 -4 -6 -8 -6 -6 -2 0 0 -2 4 -8 3 -4 0 -4 0 -10 4 -5 1 3 -1 -1 1 -0 3 9 4 1 -4
-1 -1 -4 -3 2 5 -6 -1 1 2 -1 -3 0 -2 -0 -1 -0 8 -0 -1 -1 -2 0 -4 -4 2 1 1 1 -8 -4 -8 -2 -6 8 -9 -1 -1 1 7 -1 2 1 0 1 7 1 -0 -1
-1 -3 3 4 -1 -4 5 2 4 -2 -7 -1 4 -5 -3 -2 -7 -6 -9 -8 -9 -8 -11 -6 -16 -16 -13 -18 -9 -8 -7 -10 -3 -7 5 5 -4 2 -0 2 -1 2 2 -1 -2 9 0 -1 -1
3 10 6 -5 -4 -0 1 -3 -11 -6 1 -2 -12 -3 -2 -10 -8 -9 -8 -16 -15 -15 -16 -17 -14 -7 -9 -6 -5 -5 -5 -4 1 -9 -7 8 -5 1 3 2 4 -4 -0 0 -3 5 3 1 1
-2 -9 -10 -4 -3 -5 -4 6 5 3 1 -4 -2 -4 -7 -8 -5 -2 2 6 8 -3 -7 -11 -8 -12 -9 -6 -7 -1 -5 0 -4 -1 -6 6 3 -1 1 -3 1 0 -1 -0 -1 -4 10 -0 -0
-7 -6 -0 -0 2 -4 -4 -4 -2 -2 -2 -6 -6 -4 -6 -2 -7 -2 -3 -10 -6 -6 -6 -7 -7 -3 -2 -7 -2 -5 -1 -1 -1 0 -4 -2 7 -2 -0 -1 0 -2 -3 -1 -0 -2 4 1 -2
1 -1 0 -3 -3 1 -2 -2 -7 -6 -8 -18 7 -0 -2 -7 -8 -9 -3 -2 -0 3 -0 -4 -1 -1 0 -1 -1 -3 -3 2 -3 3 5 -4 11 -2 -1 2 1 -0 -0 -0 -1 -3 3 3 -0
-0 -0 -1 -4 -4 -6 -1 0 -2 -11 -4 3 -4 -4 -6 -3 -1 2 2 1 -0 -7 -6 -0 1 1 1 4 -2 -5 -2 -3 -5 2 -3 4 13 4 -0 -1 -1 1 0 0 -1 -3 6 4 9
-3 1 -2 0 4 -5 -3 1 -5 -6 -2 -9 -12 -6 -5 3 2 -3 -1 1 -8 -1 -1 -2 -1 -2 -0 -5 -3 -3 -1 -3 -2 4 -5 5 5 -2 5 -0 -1 -2 -1 2 -2 -2 -2 7 18
-1 -1 -1 -2 0 -1 -4 -9 -11 -5 -4 -0 -3 8 -0 -0 -5 -3 1 -5 3 -2 -2 -4 -0 1 1 0 -3 -2 1 0 2 3 0 -1 9 1 8 3 3 1 -1 0 -0 2 -8 2 10
-1 -1 -4 -1 0 -2 1 -12 -1 -2 1 3 8 -4 -2 -4 -4 -2 -3 -3 -2 -8 -2 -1 0 2 0 2 3 0 0 2 -0 2 -1 -1 1 10 5 0 2 5 -1 1 3 5 -10 3 10
2 8 7 3 1 2 -4 -4 -5 1 2 -3 3 -9 -3 0 -1 -2 0 3 0 0 -1 1 1 2 -2 -2 1 1 2 5 3 2 1 -2 -1 8 -3 8 4 3 2 0 -0 4 -1 17 5
-2 -1 -4 -5 -8 -6 -5 2 1 -0 -5 6 -11 0 -1 -3 1 3 1 -1 1 2 -2 -2 -3 -1 2 3 2 3 0 3 3 1 -1 -1 4 7 -5 5 2 2 1 1 4 2 -7 -1 8
-6 -2 -1 -2 0 -1 1 2 0 -2 1 -11 -0 -5 2 -1 2 1 0 -1 1 1 -2 -0 0 -1 2 3 3 1 2 1 4 4 -1 3 2 0 0 3 2 1 0 -0 1 -2 3 -4 8
-2 -2 -2 -2 -1 2 -3 -6 -3 -1 -5 -4 2 1 -3 -5 -0 -0 2 4 2 -1 1 -2 0 -1 -0 0 4 3 2 1 2 2 1 1 -1 -2 2 1 4 0 3 2 3 3 -3 -2 3
1 -2 -1 -1 -3 -4 3 -0 -3 -5 -4 1 1 2 -4 -2 -1 2 -0 1 4 5 4 0 -2 1 -1 1 1 4 3 1 0 2 1 0 -0 -3 -2 -2 3 1 1 2 3 1 -1 -3 1
1 4 -2 1 -0 -4 -3 -1 -2 1 4 -1 1 -6 -3 -1 1 1 2 1 4 3 3 2 -2 -1 2 1 3 3 3 2 -0 1 3 1 -2 -4 -0 -3 2 3 1 1 3 -1 -0 -4 4
-1 -5 -5 0 -4 -3 -2 -1 -3 2 0 2 -4 -6 -3 3 -2 0 -0 2 -2 2 -1 2 4 -1 1 1 1 2 2 1 -0 -1 -0 3 -1 -1 -2 -1 -2 0 2 3 2 3 -2 -2 2
Height
5834 5834 5833 5834 5837 5836 5839 5841 5841 5843 5844 5845 5845 5845 5845 5842 5841 5843 5840 5839 5843 5843 5843 5842 5844 5842 5841 5840 5842 5844 5848 5849 5852 5852 5849 5847 5847 5847 5848 5850 5850 5850 5851 5853 5851 5852 5854 5856 5857
5832 5832 5831 5831 5834 5836 5838 5838 5838 5839 5840 5841 5841 5840 5840 5839 5838 5836 5837 5835 5836 5837 5839 5838 5836 5837 5836 5837 5834 5836 5839 5843 5846 5848 5846 5843 5842 5842 5845 5846 5847 5847 5848 5850 5850 5849 5851 5853 5855
5829 5829 5832 5833 5833 5833 5835 5836 5837 5836 5837 5837 5836 5836 5835 5834 5833 5832 5831 5831 5831 5832 5833 5832 5828 5831 5829 5829 5828 5828 5832 5835 5839 5842 5843 5841 5838 5837 5842 5844 5845 5845 5846 5846 5847 5846 5847 5850 5852
5834 5833 5832 5831 5831 5831 5833 5834 5835 5835 5835 5834 5833 5832 5831 5829 5828 5828 5827 5826 5826 5826 5827 5826 5827 5825 5826 5824 5821 5824 5825 5826 5831 5834 5837 5838 5835 5834 5838 5841 5841 5841 5843 5843 5845 5846 5846 5847 5850
5828 5830 5829 5829 5829 5830 5831 5831 5831 5832 5832 5833 5831 5828 5828 5826 5824 5823 5822 5821 5820 5820 5819 5818 5818 5819 5820 5818 5817 5817 5817 5820 5824 5826 5831 5833 5831 5831 5835 5837 5838 5838 5840 5841 5842 5844 5846 5847 5848
5827 5828 5828 5828 5828 5827 5828 5828 5829 5829 5829 5830 5828 5826 5823 5822 5820 5817 5816 5816 5815 5813 5811 5810 5808 5809 5811 5808 5810 5812 5812 5811 5813 5818 5823 5826 5828 5828 5831 5831 5821 5833 5835 5836 5839 5841 5842 5844 5846
5825 5827 5827 5826 5826 5827 5826 5827 5828 5827 5826 5825 5826 5823 5821 5817 5815 5811 5810 5808 5806 5805 5802 5800 5798 5795 5799 5800 5799 5800 5804 5805 5803 5807 5813 5818 5821 5822 5825 5824 5823 5829 5831 5832 5835 5836 5836 5841 5843
5821 5825 5828 5826 5826 5827 5827 5828 5827 5826 5825 5823 5821 5820 5819 5815 5810 5806 5801 5799 5798 5795 5793 5791 5789 5784 5783 5785 5786 5788 5792 5796 5798 5797 5801 5808 5810 5813 5817 5818 5819 5824 5825 5829 5831 5832 5834 5837 5839
5826 5828 5827 5826 5826 5827 5827 5827 5827 5825 5824 5822 5819 5815 5812 5809 5804 5800 5795 5790 5786 5784 5782 5780 5778 5776 5769 5770 5769 5770 5777 5782 5787 5788 5790 5795 5798 5802 5808 5812 5814 5818 5822 5825 5828 5829 5831 5833 5836
5825 5827 5826 5826 5826 5828 5827 5827 5827 5828 5825 5823 5820 5814 5809 5805 5800 5795 5789 5782 5776 5771 5769 5767 5766 5762 5757 5753 5753 5751 5755 5767 5770 5776 5779 5783 5787 5792 5797 5803 5807 5813 5817 5820 5822 5822 5826 5829 5832
5829 5828 5828 5828 5828 5828 5827 5827 5826 5824 5821 5818 5814 5811 5806 5800 5794 5788 5782 5776 5769 5761 5756 5751 5748 5746 5741 5736 5735 5733 5735 5742 5752 5759 5765 5770 5776 5782 5787 5793 5800 5804 5811 5815 5814 5818 5821 5824 5827
5830 5831 5830 5830 5830 5829 5828 5826 5823 5821 5818 5814 5810 5805 5800 5794 5788 5782 5775 5768 5761 5751 5744 5736 5729 5726 5723 5717 5714 5714 5717 5721 5730 5739 5746 5756 5763 5770 5776 5783 5790 5795 5802 5806 5806 5812 5814 5819 5823
5832 5832 5831 5830 5830 5829 5827 5826 5822 5819 5816 5812 5807 5801 5797 5791 5783 5775 5767 5760 5751 5740 5732 5722 5712 5708 5705 5700 5691 5690 5694 5699 5707 5717 5728 5739 5748 5756 5763 5772 5780 5786 5792 5798 5801 5806 5809 5814 5818
5833 5832 5832 5831 5830 5829 5827 5825 5822 5818 5813 5808 5804 5799 5794 5787 5778 5770 5761 5751 5740 5728 5717 5707 5697 5690 5682 5674 5664 5662 5667 5671 5682 5690 5706 5718 5732 5740 5751 5761 5767 5775 5782 5788 5794 5799 5804 5808 5813
5833 5833 5833 5832 5830 5831 5827 5824 5820 5815 5809 5804 5801 5795 5787 5779 5771 5761 5750 5737 5726 5714 5700 5688 5677 5667 5652 5638 5629 5627 5631 5644 5655 5667 5681 5697 5712 5725 5735 5747 5756 5763 5771 5779 5785 5793 5798 5803 5809
5834 5835 5833 5831 5830 5829 5826 5823 5818 5813 5808 5803 5796 5790 5782 5774 5763 5751 5739 5728 5712 5699 5684 5669 5653 5637 5620 5608 5602 5596 5596 5607 5625 5642 5654 5673 5688 5707 5718 5730 5742 5752 5761 5770 5777 5784 5791 5798 5803
5834 5832 5831 5831 5829 5826 5824 5821 5817 5812 5807 5799 5793 5785 5776 5767 5758 5747 5734 5720 5706 5688 5670 5653 5636 5620 5604 5588 5580 5575 5571 5575 5589 5610 5628 5649 5666 5686 5702 5715 5728 5741 5751 5760 5769 5775 5783 5791 5798
5832 5831 5832 5830 5829 5825 5823 5819 5814 5809 5803 5796 5789 5780 5774 5766 5754 5741 5729 5715 5698 5681 5664 5643 5623 5605 5590 5572 5563 5556 5556 5556 5565 5577 5599 5624 5643 5662 5682 5699 5714 5728 5740 5749 5759 5767 5776 5785 5791
5833 5832 5831 5829 5827 5825 5822 5817 5812 5807 5800 5793 5788 5780 5770 5757 5747 5736 5722 5707 5693 5675 5654 5632 5612 5595 5577 5559 5549 5544 5541 5542 5546 5557 5575 5598 5625 5640 5663 5683 5700 5715 5728 5739 5750 5758 5767 5776 5782
5834 5832 5830 5827 5825 5822 5820 5816 5809 5803 5797 5793 5785 5774 5763 5757 5746 5733 5718 5702 5687 5667 5646 5625 5606 5587 5568 5549 5536 5531 5530 5528 5532 5546 5555 5576 5605 5624 5647 5668 5687 5702 5716 5728 5741 5749 5757 5767 5775
5833 5831 5828 5826 5825 5821 5818 5814 5808 5803 5796 5788 5778 5772 5764 5754 5744 5728 5714 5699 5679 5661 5639 5616 5599 5582 5562 5541 5529 5522 5519 5519 5524 5531 5542 5560 5586 5606 5631 5655 5675 5691 5705 5719 5731 5739 5748 5758 5766
5832 5829 5827 5825 5823 5820 5816 5811 5807 5802 5794 5786 5781 5773 5764 5752 5738 5724 5711 5694 5676 5658 5637 5614 5593 5574 5557 5541 5530 5523 5519 5517 5519 5527 5537 5551 5573 5596 5621 5644 5663 5680 5695 5710 5721 5730 5740 5749 5758
5831 5828 5826 5823 5820 5817 5813 5808 5806 5800 5794 5790 5781 5772 5760 5747 5735 5723 5707 5690 5673 5653 5634 5612 5593 5577 5560 5544 5531 5525 5520 5519 5519 5523 5532 5548 5565 5592 5609 5629 5651 5669 5686 5700 5713 5722 5732 5742 5751
5829 5827 5824 5822 5818 5815 5811 5809 5804 5799 5794 5787 5779 5767 5756 5746 5735 5722 5707 5691 5674 5655 5635 5616 5596 5579 5560 5545 5533 5524 5520 5519 5519 5522 5529 5541 5560 5581 5596 5618 5639 5658 5676 5691 5704 5714 5723 5733 5741
5827 5824 5821 5819 5815 5812 5809 5808 5803 5798 5792 5786 5775 5766 5756 5747 5735 5723 5709 5694 5677 5660 5640 5619 5599 5580 5564 5549 5537 5527 5520 5517 5517 5521 5528 5540 5554 5571 5587 5609 5630 5649 5667 5683 5697 5708 5717 5726 5737
5825 5822 5819 5816 5814 5812 5809 5806 5801 5796 5791 5782 5773 5767 5758 5747 5735 5723 5710 5695 5679 5662 5644 5626 5605 5585 5569 5554 5539 5529 5522 5518 5517 5520 5527 5536 5549 5567 5584 5603 5624 5642 5660 5676 5691 5701 5710 5720 5729
5822 5819 5817 5814 5812 5809 5806 5803 5799 5794 5787 5781 5776 5768 5758 5748 5736 5724 5711 5697 5683 5666 5649 5632 5613 5593 5575 5559 5544 5533 5525 5520 5518 5519 5524 5535 5546 5564 5582 5599 5617 5636 5653 5670 5684 5694 5702 5713 5723
5821 5818 5815 5812 5809 5807 5805 5800 5796 5792 5788 5782 5775 5767 5758 5748 5737 5726 5714 5700 5686 5672 5657 5640 5622 5603 5583 5566 5550 5537 5527 5522 5519 5520 5524 5533 5548 5564 5579 5596 5614 5632 5649 5665 5679 5689 5698 5708 5717
5818 5814 5812 5809 5806 5803 5802 5800 5796 5792 5787 5781 5775 5766 5758 5748 5740 5729 5717 5704 5691 5677 5662 5646 5629 5612 5594 5577 5560 5544 5533 5525 5522 5522 5524 5532 5545 5561 5579 5595 5612 5629 5645 5660 5674 5685 5693 5704 5711
5814 5809 5806 5804 5803 5799 5797 5798 5793 5789 5784 5780 5772 5765 5758 5751 5742 5732 5721 5709 5696 5682 5668 5652 5638 5622 5606 5589 5572 5557 5542 5533 5527 5526 5527 5533 5545 5559 5578 5595 5611 5628 5643 5657 5670 5681 5689 5699 5708